Date,TemperatureHighF,TemperatureAvgF,TemperatureLowF,DewpointHighF,DewpointAvgF,DewpointLowF,HumidityHigh,HumidityAvg,HumidityLow,PressureMaxIn,PressureMinIn,WindSpeedMaxMPH,WindSpeedAvgMPH,GustSpeedMaxMPH,PrecipitationSumIn
2013-1-1,81.3,64.5,48.9,63.5,56.3,48.7,99,79,44,29.93,29.74,14,2,21,0.00
2013-1-2,85.6,68.4,53.2,68.2,60.7,52.7,99,80,45,29.78,29.66,11,2,14,0.00
2013-1-3,81.7,65.9,59.4,70.0,63.2,-3.3,99,92,60,29.88,29.73,14,2,18,0.02
2013-1-4,62.6,59.4,56.5,60.2,58.4,56.0,99,97,88,29.98,29.83,14,5,16,0.02
2013-1-5,79.7,65.9,56.5,64.0,59.0,53.7,99,80,57,30.00,29.88,12,5,20,0.00
2013-1-6,87.8,70.7,63.1,70.0,66.0,61.8,99,87,53,29.91,29.75,10,2,13,0.21
2013-1-7,71.2,65.1,59.5,67.7,60.1,54.1,99,85,68,29.92,29.81,14,5,21,0.00
2013-1-8,84.6,72.5,63.0,70.5,66.6,62.1,99,83,60,29.93,29.82,9,3,14,0.00
2013-1-9,89.4,75.9,68.9,72.6,69.6,64.5,99,83,48,30.00,29.88,13,4,17,0.01
2013-1-10,86.0,72.7,63.5,73.6,65.4,59.4,99,81,45,30.01,29.90,14,4,21,0.01
2013-1-11,84.4,71.1,60.4,75.8,65.9,60.2,99,85,57,29.97,29.84,17,3,22,0.00
2013-1-12,88.2,71.4,57.2,73.4,63.1,56.9,99,79,41,29.90,29.77,11,3,14,0.00
2013-1-13,87.3,71.7,58.3,68.2,63.5,57.8,99,79,43,29.87,29.75,11,2,16,0.00
2013-1-14,85.1,71.1,57.7,71.7,63.4,57.5,99,80,47,29.91,29.80,10,2,15,0.00
2013-1-15,85.8,75.1,67.5,65.7,63.7,58.7,94,73,44,29.86,29.74,11,3,14,0.00
2013-1-16,87.3,69.7,0.0,62.4,55.2,0.0,94,58,38,29.77,29.69,9,2,11,0.00
2013-1-17,83.3,64.3,53.6,69.4,58.2,44.6,99,82,58,29.82,29.66,21,6,29,15.37
2013-1-18,67.8,54.6,40.8,60.1,48.2,35.3,98,80,61,30.00,29.82,17,6,25,0.02
2013-1-19,75.2,66.3,56.5,63.4,58.5,53.7,92,78,62,29.98,29.83,14,5,19,0.00
2013-1-20,77.0,66.2,59.2,63.8,60.5,48.4,99,83,62,29.88,29.74,12,3,17,12.28
2013-1-21,79.7,66.4,61.2,66.2,61.0,56.2,97,84,60,29.80,29.69,98,2,99,0.01
2013-1-22,66.0,58.4,44.8,60.4,45.7,35.7,95,66,38,30.00,29.76,100,6,100,15.41
2013-1-23,74.7,56.0,41.7,47.0,36.5,16.5,98,60,15,30.09,29.98,10,2,13,0.00
2013-1-24,77.9,57.6,39.7,52.4,44.9,39.5,99,71,31,30.06,29.93,11,2,13,0.00
2013-1-25,82.2,61.1,45.7,59.9,48.4,42.5,99,72,29,30.04,29.88,8,1,12,0.00
2013-1-26,81.0,61.3,43.9,59.4,50.3,43.4,99,74,35,30.00,29.87,10,2,14,0.00
2013-1-27,81.5,62.0,49.3,58.0,53.0,49.0,99,78,41,30.03,29.92,14,2,16,15.43
2013-1-28,78.4,68.8,60.1,66.0,62.7,58.0,97,83,66,30.04,29.92,9,4,12,15.43
2013-1-29,86.2,80.0,74.7,69.0,64.8,63.2,75,62,50,29.96,29.79,15,6,19,0.00
2013-1-30,85.6,81.2,70.3,66.3,63.9,60.5,87,58,45,29.81,29.60,21,7,26,0.00
2013-1-31,70.5,60.0,45.5,67.7,43.4,14.2,99,63,19,29.95,29.60,27,6,33,0.07
2013-2-1,73.8,53.8,39.0,42.2,29.0,3.4,92,52,10,30.08,29.94,15,3,21,0.00
2013-2-2,75.4,51.6,38.1,45.6,39.3,25.4,99,72,22,30.03,29.91,9,1,11,0.00
2013-2-20,81.5,60.6,60.6,60.3,60.3,59.4,99,99,99,29.85,29.74,2,0,2,0.00
2013-2-22,88.5,77.1,59.7,70.3,64.8,59.4,99,71,41,29.92,29.92,14,4,20,0.00
2013-2-23,90.1,77.5,69.8,70.8,67.0,60.0,97,74,40,29.92,29.92,17,5,26,0.00
2013-2-24,86.2,73.0,67.1,73.8,69.1,66.2,99,89,56,29.92,29.92,11,4,14,0.07
2013-2-25,89.8,74.9,64.0,73.4,63.8,57.6,99,74,39,29.92,29.92,14,3,19,0.00
2013-2-26,77.0,72.3,64.4,72.5,69.1,63.2,97,90,79,29.92,29.92,14,5,17,0.14
2013-2-27,79.5,67.1,60.3,65.7,59.5,50.6,99,81,41,29.92,29.92,12,3,16,0.01
2013-3-2,61.2,51.1,39.4,40.1,32.5,23.4,90,55,29,29.92,29.92,22,6,33,0.00
2013-3-3,57.6,45.4,35.4,39.5,31.8,28.0,87,62,36,29.92,29.92,22,6,30,0.00
2013-3-4,73.0,49.8,30.9,41.6,25.7,6.3,98,54,11,29.92,29.92,11,2,15,0.00
2013-3-5,81.0,60.2,38.1,70.4,45.1,37.0,99,66,27,29.92,29.92,16,4,21,0.22
2013-3-6,70.9,59.3,47.1,58.0,37.7,9.8,90,55,14,29.92,29.92,26,8,34,0.01
2013-3-7,74.7,55.3,38.7,45.1,35.9,29.3,94,55,24,29.92,29.92,11,4,18,0.00
2013-3-8,79.7,58.8,37.2,51.1,38.9,16.4,99,62,13,29.92,29.92,11,2,15,0.00
2013-3-9,76.6,62.8,52.2,52.2,48.3,42.0,96,64,33,29.92,29.92,13,4,17,0.00
2013-3-10,81.5,63.2,58.3,55.9,52.2,48.6,81,70,37,29.92,29.92,14,3,21,0.00
2013-3-11,80.4,68.3,52.5,61.4,56.5,51.6,98,70,44,29.92,29.92,17,4,24,0.00
2013-3-12,73.9,66.9,55.9,68.4,62.9,54.2,99,88,75,29.92,29.92,14,6,22,0.21
2013-3-13,55.9,54.3,52.9,54.2,53.4,52.1,98,97,94,29.92,29.92,6,3,10,0.00
2013-3-24,84.2,76.5,66.6,75.3,70.9,61.7,99,84,65,29.92,29.92,27,8,36,0.11
2013-3-25,77.2,66.1,52.0,69.0,40.6,8.3,96,52,12,29.92,29.92,17,7,24,0.00
2013-3-26,62.4,53.4,45.0,43.8,27.8,13.9,75,44,19,29.92,29.92,23,8,32,0.00
2013-3-27,67.3,50.9,34.3,38.8,29.6,16.6,97,53,18,29.92,29.92,14,4,21,0.00
2013-3-28,75.0,55.6,35.4,47.5,30.4,6.7,99,54,12,29.92,29.92,14,3,18,0.00
2013-3-29,79.5,59.4,39.9,51.0,36.1,16.6,99,57,14,29.92,29.92,14,2,21,0.00
2013-3-30,84.4,64.4,43.9,59.9,46.1,33.8,99,61,21,29.92,29.92,12,2,17,0.00
2013-3-31,86.4,70.2,55.4,60.3,52.8,44.4,92,60,30,29.92,29.92,16,3,22,0.00
2013-4-1,87.6,72.9,59.9,69.3,61.3,57.4,96,71,41,29.92,29.92,17,4,26,0.00
2013-4-2,93.7,72.7,58.3,65.5,58.2,43.2,99,68,24,29.92,29.92,12,3,17,0.00
2013-4-3,87.6,73.4,60.6,69.3,63.7,57.6,99,76,43,29.92,29.92,15,4,21,0.53
2013-4-4,72.1,69.7,66.7,70.8,67.6,63.3,99,93,79,29.92,29.92,19,5,27,0.27
2013-4-5,79.0,69.5,61.3,70.3,62.8,53.1,99,81,46,29.92,29.92,17,5,23,0.01
2013-4-6,80.1,66.4,53.8,60.6,56.1,52.6,97,73,44,29.92,29.92,14,6,24,0.00
2013-4-7,84.4,70.7,58.5,65.7,58.7,52.7,99,71,39,29.92,29.92,14,4,17,0.00
2013-4-8,88.7,72.3,58.3,70.5,59.2,52.7,99,69,35,29.92,29.92,12,3,15,0.00
2013-4-9,86.4,71.8,58.5,69.9,60.9,57.1,99,73,44,29.92,29.92,15,4,23,0.00
2013-4-10,63.9,62.3,59.9,60.7,59.7,58.5,95,91,86,29.92,29.92,2,0,3,0.00
2013-4-20,78.8,70.3,62.6,65.6,62.5,58.0,89,77,62,29.92,29.92,14,6,17,0.00
2013-4-21,83.7,70.5,62.1,73.8,66.3,57.6,98,87,64,29.92,29.92,13,4,17,0.04
2013-4-22,83.3,71.9,67.8,70.6,67.9,64.9,99,89,58,29.92,29.92,17,4,28,0.13
2013-4-23,85.5,72.7,62.8,66.1,62.0,55.7,99,74,42,29.92,29.92,14,6,23,0.00
2013-4-24,95.4,73.8,57.4,66.3,60.9,56.2,99,70,32,29.92,29.92,11,3,18,0.00
2013-4-25,94.1,76.0,59.7,68.8,60.8,52.5,99,67,31,29.92,29.92,10,2,13,0.00
2013-4-26,92.8,76.5,61.2,72.9,62.7,57.1,99,68,36,29.92,29.92,15,3,20,0.00
2013-4-27,87.6,75.5,64.2,71.0,65.6,59.4,99,75,45,29.92,29.92,16,4,21,0.00
2013-4-28,90.0,75.7,62.6,68.1,62.4,53.7,97,69,34,29.92,29.92,17,5,24,0.00
2013-4-29,91.8,75.7,62.6,69.4,63.9,59.5,98,72,39,29.92,29.92,14,3,23,0.14
2013-4-30,69.4,67.9,66.6,69.1,67.6,66.3,99,99,97,29.92,29.92,11,1,16,0.24
2013-12-11,92.1,87.4,81.7,67.7,66.0,63.7,60,51,45,29.92,29.92,8,3,10,0.00